Regional Weather Roundup
Issued by NWS New Orleans/Baton Rouge, LA

Home | Current Version | Previous Version | Graphics & Text | Print | Product List | Glossary On
Versions: 1 2 3 4 5 6 7 8 9 10 11 12 13 14 15 16 17 18 19 20 21 22 23 24 25 26 27 28 29 30 31 32 33 34 35 36 37 38 39 40 41 42 43 44 45 46 47 48 49 50
007
ASUS44 KLIX 231910
RWRLIX
NEW ORLEANS REGIONAL WEATHER ROUNDUP
NATIONAL WEATHER SERVICE NEW ORLEANS LA
200 PM CDT THU OCT 23 2014

NOTE: "FAIR" INDICATES FEW OR NO CLOUDS BELOW 12,000 FEET WITH NO
      SIGNIFICANT WEATHER AND/OR OBSTRUCTIONS TO VISIBILITY.
      SKY/WX - SKY CONDITION AND SIGNIFICANT WEATHER.
      TMP - AIR TEMPERATURE.     DP    - DEWPOINT TEMPERATURE.
      RH  - RELATIVE HUMIDITY.   PRES  - PRESSURE.
      HI  - HEAT INDEX.          WCI   - WIND CHILL INDEX.

*  THESE STATIONS ARE NOT NWS OR FAA STATIONS AND ARE NOT UNDER
   NWS QUALITY CONTROL.

LAZ038-040-048-061>063-065>067-069-232000-
SOUTHEAST LOUISIANA

CITY           SKY/WX    TMP DP  RH WIND       PRES   REMARKS
N.O. AUDUBON     N/A     76  50  40 MISG        N/A
N.O. INTL ARPT MOSUNNY   73  41  31 NE10      30.06F
N.O. LAKEFRONT SUNNY     73  47  39 N10       30.06F
N.O. DOWNTOWN*   N/A     73  45  35 CALM      30.06F
SLIDELL        SUNNY     74  44  34 NE8       30.06F
BATON ROUGE    MOSUNNY   75  47  36 VRB6      30.07F
BOOTHVILLE     SUNNY     75  59  57 NE7       30.05F
BELLE CHASSE   MOSUNNY   74  45  35 E8        30.05F
BOGALUSA*        N/A     75  42  30 E7        30.08F
NEW ROADS*       N/A     72  48  43 NE3       30.08F
GONZALES*        N/A     74  48  39 N6        30.06F
HAMMOND*       SUNNY     77  39  25 NE7       30.08F
HOUMA*         SUNNY     77  48  36 N9        30.04F
PORT FOURCHON* CLEAR     73  57  56 NE13      30.07F

$$

MSZ070-080>082-232000-
SOUTHERN MISSISSIPPI

CITY           SKY/WX    TMP DP  RH WIND       PRES   REMARKS
MCCOMB         PTSUNNY   71  41  33 N7        30.09F HAZE
GULFPORT       SUNNY     75  45  34 VRB6      30.04F
BILOXI         SUNNY     74  44  33 N7        30.05F
PASCAGOULA     SUNNY     75  46  35 VRB7      30.05F
STENNIS ARPT*  SUNNY     73  39  29 NE7       30.06F

$$

COASTAL OBSERVATIONS
LAKE AND NEARSHORE STATIONS

STATION/POSITION TIME  TEMP    WIND        PRES    WAVE
                       AIR SEA DIR/SP/G            HT/PER
                 (UTC) (F)     (DEG/KT/KT) (MB)    (FT/S)
PASCAGOULA       1900   74      80/  4/  6 1017.0
WAVELAND YACHT   1900   70     330/  2/  5 1017.0
GRAND ISLE       1900   72 74   60/  9/ 13 1017.7
SOUTHWEST PASS   1900   82 81              1017.0
NEW CANAL        1900   69 71   40/ 11/ 13 1018.1
SHELL BEACH      1900   68 69   30/ 11/ 13 1017.7

OFFSHORE STATIONS

STATION/POSITION TIME  TEMP    WIND        PRES    WAVE
                       AIR SEA DIR/SP/G            HT/PER
                 (UTC) (F)     (DEG/KT/KT) (MB)    (FT/S)
64 S DAUPHIN ISL 1758   72 80   80/ 10/ 14 1017.4    3/ 6

$$




USA.gov is the U.S. government's official web portal to all federal, state and local government web resources and services.